Regional Weather Roundup
Issued by NWS

Home | Current Version | Previous Version | Text Only | Print | Product List | Glossary Off
Versions: 1 2 3 4 5 6 7 8 9 10 11 12 13 14 15 16 17 18 19 20 21 22 23 24 25 26 27 28 29 30 31 32 33 34 35 36 37 38 39 40 41 42 43 44 45 46 47 48 49 50

000
ASUS43 KOAX 281402
RWRNE

WEATHER ROUNDUP FOR NEBRASKA
NATIONAL WEATHER SERVICE OMAHA NE
900 AM CDT TUE JUL 28 2015

NOTES: SATELLITE DATA IS BEING USED TO AUGMENT CLOUD COVER ABOVE
       12000 FEET.
       "FAIR" INDICATES FEW OR NO CLOUDS BELOW 12,000 FEET WITH NO
       SIGNIFICANT WEATHER AND/OR OBSTRUCTIONS TO VISIBILITY.

  * THESE STATIONS DO NOT REPORT WEATHER SUCH AS RAIN...SNOW OR FOG.

NEZ001>004-019>022-054>056-281500-
NEBRASKA PANHANDLE

CITY           SKY/WX    TMP DP  RH WIND       PRES   REMARKS
SCOTTSBLUFF    SUNNY     61  51  70 NW8       30.08R
ALLIANCE       SUNNY     61  47  59 NW10      30.07R
CHADRON        SUNNY     60  46  59 W13       30.06R
KIMBALL        SUNNY     64  33  31 NW15G21   30.11R
SIDNEY         SUNNY     64  47  53 N13       30.09R
$$

NEZ057>060-069>072-079>082-281500-
SOUTHWEST NEBRASKA

CITY           SKY/WX    TMP DP  RH WIND       PRES   REMARKS
NORTH PLATTE   SUNNY     69  50  50 N14       29.97R
IMPERIAL       SUNNY     68  50  52 N21       30.00R
MCCOOK         SUNNY     74  56  53 N24       29.92R
$$

NEZ005>010-023>029-035>040-094-281500-
NORTH CENTRAL NEBRASKA

CITY           SKY/WX    TMP DP  RH WIND       PRES   REMARKS
VALENTINE      SUNNY     66  50  56 NW15G22   29.95R
AINSWORTH      SUNNY     65  51  59 NW14G21   29.97R
BROKEN BOW     SUNNY     69  54  58 N17G23    29.93R
O`NEILL        CLOUDY    67  62  84 NW17      29.93R
ORD            MOSUNNY   69  59  70 N17G28    29.89R
$$

NEZ041-046>049-061>064-073>077-083>087-281500-
SOUTH CENTRAL NEBRASKA

CITY           SKY/WX    TMP DP  RH WIND       PRES   REMARKS
GRAND ISLAND   MOSUNNY   82  71  69 SW12      29.83R
AURORA         MOSUNNY   80  71  73 S7        29.82R
HASTINGS       SUNNY     80  69  69 SW7       29.83R
KEARNEY *      MOSUNNY   81  70  69 NW20      29.85R
$$

NEZ011>018-030>034-042>045-281500-
NORTHEAST NEBRASKA

CITY           SKY/WX    TMP DP  RH WIND       PRES   REMARKS
NORFOLK        PTSUNNY   77  73  87 NE6       29.82R
BLAIR          TSTM      70  67  91 E10       29.89F
COLUMBUS *     PTSUNNY   75  68  78 SE6       29.82R
FREMONT        CLOUDY    74  72  91 E10       29.86R
TEKAMAH        LGT RAIN  72  69  90 E15G26    29.85F
$$

NEZ050>053-065>068-078-088>093-281500-
SOUTHEAST NEBRASKA

CITY           SKY/WX    TMP DP  RH WIND       PRES   REMARKS
LINCOLN        PTSUNNY   77  73  87 E15       29.86R THUNDER
OMAHA EPPLEY   CLOUDY    73  70  90 NE17      29.88F THUNDER
FALLS CITY     SUNNY     83  74  74 S12       29.84S
$$

NEZ044-045-051>053-067-281500-
OMAHA AREA

CITY           SKY/WX    TMP DP  RH WIND       PRES   REMARKS
OMAHA EPPLEY   CLOUDY    73  70  90 NE17      29.88F THUNDER
BLAIR          TSTM      70  67  91 E10       29.89F
FREMONT        CLOUDY    74  72  91 E10       29.86R
OFFUTT AFB     TSTM      75  73  94 NE8       29.88R FOG
$$


USA.gov is the U.S. government's official web portal to all federal, state and local government web resources and services.